Location: Москва
(55.7504°N, 37.6175°E)
Time: 10:54:01
(UTC+03:00)

Envisat - Pass Details

Date: 20 September 2021
Orbit: 764 x 766 km, 98.2° (Epoch: 25 October)

Event Time Altitude Azimuth Distance (km) Brightness Sun altitude
Rises 04:59:51 0° 20° (NNE) 3,248 6.8 -10.6°
Reaches altitude 10° 05:02:24 10° 30° (NNE) 2,316 6.2 -10.3°
Maximum altitude 05:06:58 32° 94° (E) 1,299 5.0 -9.7°
Drops below altitude 10° 05:11:29 10° 157° (SSE) 2,300 5.6 -9.1°
Sets 05:14:01 0° 167° (SSE) 3,221 6.2 -8.7°
